Wind_Speed
63 66 69 71 73 75 76 76 75 75 74 74 74 74 74 74 73 73 72 72 71 70 70 70 69 69 69 68 68 68 67 66 65 65 64 64 63 62 61 60 58 57 55
69 73 76 79 81 83 83 82 82 81 80 80 79 79 80 80 80 79 78 77 76 76 76 76 75 75 74 73 72 72 71 70 68 68 68 67 67 65 65 64 63 62 60
76 80 83 85 86 87 87 88 87 87 86 85 85 84 83 84 85 85 84 83 83 82 82 82 82 82 81 79 78 77 77 75 73 72 71 70 69 68 68 67 66 66 65
82 84 85 85 86 86 86 84 82 81 80 79 80 81 82 83 85 86 87 87 87 87 87 87 87 88 87 87 85 83 82 81 79 77 75 73 71 70 69 69 69 69 69
83 82 82 82 81 77 73 68 65 63 62 61 61 62 63 65 68 74 79 82 84 86 87 88 89 90 91 91 90 89 87 86 84 82 80 78 76 74 71 69 68 69 69
79 78 76 73 67 60 56 54 52 51 51 51 50 49 46 43 43 46 52 59 66 70 74 78 81 84 86 89 90 90 90 89 88 87 85 83 81 79 76 73 71 70 70
74 70 66 58 51 50 49 48 49 48 47 46 45 43 40 35 31 28 29 34 40 46 52 56 60 65 69 74 78 82 86 88 89 89 88 87 85 84 83 80 77 74 72
65 61 55 49 47 46 46 47 47 47 46 45 43 41 39 34 29 25 23 24 26 30 35 39 42 46 50 54 60 66 72 78 82 85 87 87 87 86 86 85 83 80 78
58 54 50 47 44 44 46 47 47 47 46 45 43 41 38 34 31 28 25 25 25 26 29 31 34 37 40 44 48 53 58 65 71 76 78 81 83 85 85 86 87 86 83
53 50 47 44 43 44 46 48 49 48 48 46 44 42 39 35 32 30 28 28 28 28 29 31 33 35 38 40 43 46 51 56 61 64 66 69 70 72 75 78 82 84 85
49 48 46 45 45 46 49 50 50 50 49 48 46 44 42 39 37 34 32 32 31 31 32 33 34 36 37 38 38 40 43 47 50 53 57 57 57 57 60 64 68 73 78
49 49 48 48 48 50 52 53 54 54 53 52 50 48 46 44 42 40 38 37 36 36 35 35 36 36 36 35 35 35 37 39 40 43 47 50 52 54 56 58 60 63 66
49 50 50 51 52 53 55 57 58 58 58 57 55 53 51 48 46 44 43 41 40 39 38 37 36 35 34 32 31 30 28 30 33 38 42 47 50 53 54 53 54 55 57
50 51 52 54 55 57 59 60 61 62 61 60 58 57 55 52 50 48 46 44 43 41 39 37 36 35 32 29 27 24 22 26 31 35 39 44 48 50 51 51 50 51 52
53 54 56 58 59 61 62 62 62 62 60 59 57 56 54 53 51 49 47 46 44 42 40 38 36 34 31 28 25 23 24 26 31 35 39 42 45 46 47 49 49 49 50
56 58 60 62 64 64 62 60 58 57 55 54 53 52 51 49 47 46 46 45 44 42 40 39 36 34 31 29 27 26 27 30 31 34 37 39 42 42 43 45 46 47 48
59 62 64 65 64 61 58 55 53 52 52 52 51 51 49 47 45 43 42 42 42 41 40 38 36 34 33 32 30 31 32 33 33 34 35 36 39 40 41 41 42 44 46
62 64 64 61 57 53 52 52 52 53 54 55 54 53 51 48 45 42 39 38 38 39 38 37 37 35 35 34 33 33 36 37 37 37 36 36 38 40 41 41 41 42 44
63 63 59 54 51 51 51 52 53 55 56 57 57 55 53 49 45 41 37 35 34 35 37 37 37 37 37 37 37 36 37 39 39 39 39 38 39 40 41 42 43 43 44
61 57 52 49 49 50 51 53 55 57 58 58 58 56 53 50 45 41 36 33 31 30 33 36 38 38 38 39 39 39 38 39 40 40 40 40 41 42 43 44 45 46 46
56 51 48 47 48 50 53 55 57 59 60 60 59 57 54 50 46 42 38 33 29 27 28 32 36 39 40 41 41 42 40 39 40 41 42 42 43 44 45 45 47 48 48
51 47 46 47 49 52 55 57 59 60 62 62 60 57 54 50 46 42 39 35 31 27 25 26 31 37 40 42 43 43 43 42 40 40 41 43 43 44 45 47 48 49 49
47 45 46 48 51 54 57 59 61 62 63 62 60 57 53 50 47 43 40 37 33 28 25 23 25 31 37 41 43 44 45 44 43 42 41 42 43 44 45 46 48 49 49
45 45 47 49 53 55 58 60 62 63 63 62 60 58 54 51 48 46 42 38 34 30 26 23 22 24 30 37 42 44 45 46 45 45 44 43 42 43 44 46 47 48 48
44 45 48 51 54 56 59 61 63 64 62 61 61 60 58 54 50 46 44 40 35 31 27 23 21 20 23 28 36 42 45 47 47 47 47 46 45 44 45 46 47 48 48
44 46 49 52 54 56 59 62 64 63 60 60 61 62 61 59 55 49 44 40 37 32 28 25 22 20 19 21 26 33 41 46 49 49 49 49 49 48 47 47 48 48 49
Wind_Direction
307 305 303 301 299 297 295 292 290 286 283 279 275 273 271 269 268 266 263 261 260 259 258 257 256 256 255 254 252 251 249 248 248 247 246 245 245 245 245 245 243 241 240
306 305 304 302 300 297 295 293 290 286 283 279 275 271 267 264 263 263 262 262 260 259 258 258 257 257 256 255 254 252 250 249 248 248 247 246 245 245 245 245 245 244 242
306 305 304 303 300 298 296 295 293 292 290 287 282 276 271 267 263 260 259 258 258 258 258 258 258 257 257 256 256 256 253 251 249 248 248 246 245 245 244 244 244 244 244
310 308 306 304 301 300 300 301 301 301 300 299 295 290 282 274 267 263 260 259 258 257 257 257 257 258 257 257 256 256 256 254 252 250 248 247 246 245 244 244 244 244 244
312 310 308 307 306 307 308 310 311 310 309 308 306 302 296 288 278 269 263 261 261 261 260 259 259 259 259 259 258 257 255 254 253 252 251 249 247 245 244 243 243 244 243
314 313 312 312 313 315 317 319 320 320 319 318 317 316 311 302 291 278 269 264 262 262 263 264 263 262 261 261 260 258 256 254 253 252 251 251 249 248 246 244 243 242 242
318 317 316 317 319 321 323 325 326 327 327 327 325 324 323 318 308 291 275 266 262 261 262 263 264 264 263 262 260 259 257 254 252 250 250 250 249 249 248 246 244 243 242
321 321 323 323 324 325 326 327 329 330 331 331 330 329 327 324 318 307 292 278 268 263 262 263 264 265 264 262 259 256 253 251 249 248 247 247 247 248 248 247 246 245 243
325 327 326 325 325 326 328 329 330 331 331 330 330 329 327 324 319 311 302 294 286 279 276 273 272 272 271 269 266 261 255 250 246 244 243 243 244 244 245 246 246 245 244
329 329 327 325 325 326 327 329 329 329 328 327 326 325 323 320 316 311 304 297 292 288 284 281 279 280 279 277 272 265 258 253 248 244 240 239 239 241 242 244 245 245 244
330 330 328 325 324 323 324 325 325 325 324 323 321 319 316 314 310 306 301 296 292 289 286 284 284 284 283 283 279 270 261 253 247 241 237 235 233 234 235 238 241 243 243
330 330 329 327 323 321 321 320 320 320 319 318 316 314 311 308 305 301 298 294 291 288 287 285 285 284 285 285 281 275 265 252 241 234 230 227 226 227 230 234 236 238 240
331 330 329 327 324 322 320 319 318 317 315 314 312 310 307 304 301 298 294 292 289 287 286 285 284 283 284 282 280 275 261 241 230 227 226 224 223 226 228 230 231 233 236
330 330 329 327 325 323 321 319 318 316 315 313 310 308 304 301 298 294 291 288 286 284 283 282 281 280 279 277 275 267 249 234 224 222 225 225 226 229 231 232 234 235 237
330 330 328 327 326 324 323 321 320 319 318 316 314 311 306 302 297 292 288 285 282 280 278 277 276 274 271 269 264 252 240 232 226 226 226 227 229 231 232 233 234 235 235
330 330 329 328 327 327 327 327 327 327 326 325 322 319 315 309 302 294 287 281 278 276 274 272 270 267 263 259 252 244 237 232 233 232 230 231 231 231 233 233 233 235 234
331 331 330 330 330 332 334 336 337 338 337 335 333 330 326 321 313 304 293 282 275 271 269 267 265 262 256 252 247 241 235 233 234 233 233 234 233 232 232 232 233 233 233
333 332 332 333 336 339 341 342 342 342 341 340 339 337 333 328 323 316 306 292 279 269 263 261 259 257 253 248 245 240 236 236 236 236 236 236 234 233 233 232 232 231 232
334 334 337 339 342 343 344 345 344 344 344 343 341 339 337 333 329 323 315 305 291 276 263 256 253 252 250 246 243 239 237 237 237 238 238 237 235 233 232 232 231 230 231
337 339 342 344 346 347 347 347 346 345 344 343 342 341 340 338 335 331 325 316 302 287 271 258 251 248 247 245 242 239 237 237 236 236 236 236 235 233 232 231 229 228 228
340 343 345 347 348 349 349 349 348 346 345 344 343 342 341 341 339 337 333 328 317 301 283 266 254 248 245 243 242 240 236 235 235 235 235 235 234 231 230 230 227 226 226
343 346 348 349 349 350 350 349 348 347 346 345 344 343 341 340 340 339 337 333 328 316 299 279 262 251 246 243 242 240 238 235 234 234 234 234 233 231 229 228 227 226 225
346 348 349 350 350 350 350 350 349 349 348 347 347 346 344 341 339 337 335 333 329 323 312 296 275 259 248 244 242 241 239 236 234 233 232 232 232 231 229 227 226 225 224
348 349 351 351 352 351 351 351 351 351 351 351 351 350 348 344 340 336 332 329 326 322 316 307 292 273 256 247 243 241 240 238 236 234 232 230 230 229 227 226 226 225 224
350 351 352 353 353 353 353 353 353 354 355 355 356 355 352 349 345 339 333 328 324 320 314 307 298 286 271 256 246 242 241 240 238 236 234 231 230 229 227 226 226 226 226
352 353 353 353 354 354 355 355 355 356 357 358 359 359 358 354 350 346 339 332 325 320 314 307 299 290 281 270 257 247 242 240 239 238 237 234 232 230 229 227 227 227 227
Height
5757 5747 5737 5728 5718 5709 5699 5691 5683 5675 5669 5663 5658 5655 5651 5649 5646 5644 5642 5641 5642 5642 5643 5645 5648 5650 5654 5658 5662 5666 5670 5676 5679 5683 5688 5693 5697 5702 5706 5711 5716 5721 5725
5743 5732 5721 5710 5698 5686 5675 5665 5655 5647 5639 5633 5628 5625 5623 5621 5621 5620 5620 5619 5619 5620 5622 5624 5627 5630 5634 5638 5641 5645 5650 5656 5660 5664 5668 5675 5681 5687 5690 5695 5701 5706 5711
5727 5715 5702 5689 5674 5660 5647 5635 5624 5615 5608 5601 5596 5594 5592 5591 5590 5590 5592 5593 5594 5595 5597 5600 5604 5608 5612 5617 5620 5624 5628 5634 5640 5644 5649 5655 5664 5669 5673 5679 5684 5690 5695
5709 5694 5680 5666 5651 5637 5624 5613 5602 5591 5581 5572 5565 5559 5557 5558 5559 5560 5563 5565 5566 5569 5572 5575 5579 5583 5588 5593 5598 5602 5606 5611 5618 5624 5629 5636 5642 5649 5656 5661 5667 5672 5678
5690 5675 5659 5644 5630 5617 5606 5596 5586 5575 5565 5555 5545 5536 5529 5525 5526 5529 5534 5538 5541 5544 5547 5551 5555 5560 5564 5568 5573 5578 5583 5589 5595 5601 5608 5614 5620 5627 5635 5643 5649 5654 5660
5672 5657 5641 5627 5615 5604 5594 5585 5575 5565 5554 5544 5533 5523 5515 5508 5505 5504 5508 5513 5518 5522 5524 5528 5532 5536 5540 5543 5547 5552 5558 5564 5571 5578 5584 5591 5598 5606 5613 5621 5629 5635 5642
5655 5641 5628 5616 5605 5595 5586 5576 5566 5557 5546 5536 5526 5516 5507 5501 5496 5493 5494 5496 5500 5504 5507 5510 5512 5514 5517 5519 5522 5526 5532 5538 5545 5553 5560 5567 5574 5583 5590 5598 5607 5615 5623
5642 5628 5616 5605 5596 5587 5577 5568 5559 5549 5539 5530 5520 5511 5503 5497 5492 5488 5487 5487 5489 5491 5493 5495 5496 5497 5497 5498 5499 5502 5506 5511 5517 5526 5534 5542 5550 5558 5566 5575 5584 5593 5602
5631 5618 5607 5597 5588 5579 5570 5560 5551 5542 5533 5524 5516 5508 5500 5493 5488 5484 5482 5481 5480 5481 5482 5482 5483 5482 5482 5481 5481 5482 5484 5486 5492 5500 5508 5516 5525 5534 5542 5551 5560 5570 5580
5621 5610 5599 5589 5581 5572 5562 5553 5544 5535 5526 5518 5510 5503 5496 5490 5484 5480 5477 5474 5472 5471 5471 5470 5470 5469 5467 5465 5464 5463 5464 5466 5471 5478 5486 5494 5503 5512 5520 5528 5536 5545 5556
5613 5602 5592 5582 5573 5564 5555 5546 5537 5528 5520 5511 5504 5497 5490 5484 5479 5474 5470 5466 5464 5462 5460 5458 5457 5455 5453 5450 5448 5446 5446 5448 5452 5459 5467 5477 5486 5495 5502 5509 5516 5524 5533
5605 5595 5584 5574 5565 5556 5547 5538 5528 5519 5510 5502 5494 5487 5480 5474 5469 5464 5460 5456 5453 5450 5448 5446 5444 5442 5440 5437 5434 5432 5431 5433 5438 5444 5453 5462 5471 5479 5486 5493 5499 5506 5515
5599 5588 5578 5567 5558 5548 5538 5528 5517 5508 5499 5490 5482 5474 5468 5462 5456 5451 5447 5443 5440 5437 5435 5433 5431 5429 5427 5425 5422 5420 5419 5421 5427 5433 5441 5448 5456 5464 5470 5477 5484 5491 5499
5592 5581 5571 5560 5549 5538 5527 5516 5505 5494 5485 5475 5467 5459 5452 5446 5441 5436 5432 5429 5426 5423 5421 5419 5418 5416 5415 5414 5412 5411 5410 5412 5417 5423 5429 5435 5442 5449 5456 5464 5471 5479 5486
5586 5574 5563 5552 5540 5528 5516 5504 5492 5481 5470 5460 5450 5442 5434 5427 5422 5418 5414 5412 5410 5408 5406 5405 5405 5404 5404 5404 5403 5403 5404 5405 5408 5413 5419 5424 5431 5437 5444 5451 5459 5467 5474
5578 5566 5554 5541 5528 5516 5503 5491 5480 5468 5457 5446 5436 5426 5418 5410 5404 5399 5396 5394 5392 5391 5391 5391 5391 5391 5392 5392 5394 5395 5396 5398 5401 5404 5409 5415 5421 5427 5433 5440 5448 5455 5462
5569 5556 5543 5530 5517 5504 5492 5480 5469 5458 5447 5437 5426 5415 5405 5396 5388 5382 5378 5375 5375 5375 5375 5376 5376 5377 5379 5380 5383 5385 5387 5390 5392 5396 5400 5405 5410 5416 5423 5430 5437 5444 5450
5561 5547 5534 5521 5508 5496 5485 5474 5463 5452 5441 5429 5418 5407 5396 5385 5376 5369 5363 5359 5357 5358 5359 5360 5362 5363 5365 5368 5371 5374 5377 5380 5383 5387 5391 5395 5400 5406 5413 5420 5426 5432 5439
5552 5538 5525 5513 5502 5491 5481 5470 5458 5447 5435 5423 5411 5399 5388 5376 5367 5358 5351 5346 5343 5342 5343 5345 5347 5349 5351 5354 5357 5361 5365 5369 5373 5377 5381 5386 5391 5396 5402 5409 5415 5421 5428
5543 5530 5519 5508 5498 5488 5477 5466 5454 5442 5429 5417 5404 5392 5380 5368 5358 5349 5341 5335 5331 5328 5328 5329 5332 5335 5337 5340 5344 5348 5353 5357 5361 5366 5370 5375 5380 5385 5390 5397 5403 5410 5416
5536 5525 5514 5505 5495 5485 5473 5461 5449 5436 5423 5410 5397 5384 5372 5361 5351 5341 5333 5327 5321 5318 5315 5315 5317 5320 5323 5326 5330 5334 5340 5345 5349 5353 5358 5362 5367 5372 5378 5384 5391 5397 5404
5532 5522 5512 5502 5492 5481 5470 5458 5445 5432 5418 5404 5390 5377 5365 5354 5344 5335 5326 5319 5313 5309 5305 5304 5304 5306 5310 5313 5316 5320 5325 5331 5336 5341 5345 5350 5354 5360 5366 5372 5378 5385 5392
5529 5519 5510 5500 5489 5478 5466 5454 5441 5427 5413 5398 5384 5371 5358 5347 5337 5329 5321 5313 5307 5301 5297 5294 5292 5292 5295 5299 5302 5306 5311 5317 5323 5328 5333 5338 5343 5348 5354 5360 5367 5373 5380
5527 5518 5509 5498 5487 5476 5463 5450 5437 5422 5408 5394 5379 5366 5354 5342 5331 5320 5312 5305 5299 5293 5289 5285 5282 5281 5282 5285 5288 5293 5298 5303 5309 5314 5320 5326 5331 5336 5342 5349 5355 5362 5369
5526 5517 5507 5496 5485 5473 5460 5447 5433 5419 5405 5391 5377 5363 5349 5337 5325 5314 5303 5295 5289 5283 5279 5276 5274 5271 5271 5271 5274 5278 5283 5288 5294 5300 5306 5312 5319 5324 5330 5337 5343 5350 5357
5524 5515 5505 5494 5483 5471 5458 5445 5430 5416 5403 5389 5376 5361 5346 5332 5319 5307 5296 5285 5277 5272 5268 5266 5264 5262 5261 5261 5262 5264 5268 5274 5279 5286 5291 5298 5304 5311 5317 5324 5331 5338 5345